Preview of NWS' New Version of Forecast
This preview is not operational and should not be used for support decisions.

Regional Weather Roundup (RWR)

Issued by National Weather Service (NWS)

                            
000
ASUS43 KLSX 230357
RWRMO 

WEATHER SUMMARY FOR MISSOURI
NATIONAL WEATHER SERVICE SPRINGFIELD MO
1000 PM CST FRI FEB 22 2019

NOTE: "FAIR" INDICATES FEW OR NO CLOUDS BELOW 12,000 FEET WITH NO
       SIGNIFICANT WEATHER AND/OR OBSTRUCTIONS TO VISIBILITY.
       CURRENT SKY AND/OR WEATHER CONDITIONS ARE NOT AVAILABLE FOR
       CHILLICOTHE AND FARMINGTON.

MOZ001>031-035>038-043-044-053-054-230500-
...NORTHERN AND WESTERN MISSOURI...
  
CITY           SKY/WX    TMP DP  RH WIND       PRES   REMARKS
KANSAS CTY INT LGT RAIN  35  33  92 E12       29.98F VSB 1/4 WCI  27  
KANSAS C DTWN  RAIN      37  34  87 E5        29.99F FOG              
LEE'S SUMMIT   CLOUDY    36  36 100 E12       29.99F FOG     WCI  28  
ST JOSEPH      CLOUDY    35  31  85 E7        30.01F FOG     WCI  29  
CHILLICOTHE      N/A     35  34  96 E10       30.05F WCI  27          
     
$$
MOZ066>068-077>081-088>096-101>105-230500-
...SOUTHWEST MISSOURI...
  
CITY           SKY/WX    TMP DP  RH WIND       PRES   REMARKS
SPRINGFIELD    CLOUDY    41  39  93 SE12      29.97F FOG              
JOPLIN         CLOUDY    44  42  93 SE8       29.94F                  
               
$$
MOZ032>034-039>042-045>050-055>058-069>072-230500-
...CENTRAL MISSOURI...  
  
CITY           SKY/WX    TMP DP  RH WIND       PRES   REMARKS
COLUMBIA       NOT AVBL                                               
JEFFERSON CITY CLOUDY    39  36  89 E9        30.08F FOG              
ROLLA          CLOUDY    36  35  96 E14       30.05F FOG     WCI  27  
SEDALIA        CLOUDY    37  32  82 E15       30.02F HAZE    WCI  28  
WARRENSBURG    DRIZZLE   36  34  93 NE7       30.02F WCI  30          
               
$$
MOZ051-052-059>065-230500-
...EAST CENTRAL MISSOURI...
  
CITY           SKY/WX    TMP DP  RH WIND       PRES   REMARKS
ST LOUIS INTL  CLOUDY    41  32  70 E12       30.14F                  
                   
$$
MOZ072>076-082>087-097>100-106>115-230500-
...SOUTH CENTRAL AND SOUTHEAST MISSOURI...
  
CITY           SKY/WX    TMP DP  RH WIND       PRES   REMARKS
CAPE GIRARDEAU CLOUDY    46  39  76 E10       30.11F                  
POPLAR BLUFF   CLOUDY    44  41  89 NE9G17    30.09F                  
                                       
$$